Houlton, ME

3:12 PM EST on January 19, 2017 (GMT -0500)
Houlton International

Weather History for KHUL - March, 2013

Change the Weather History Date:

Monday, March 18, 2013

  Actual Average Record
Temperature  
Mean Temperature 17 °F 26 °F  
Max Temperature 30 °F 37 °F 69 °F (2012)
Min Temperature 3 °F 16 °F -24 °F (1967)
Degree Days  
Heating Degree Days 48 39  
Month to date heating degree days 618 758  
Since 1 July heating degree days 6723 7331  
Cooling Degree Days 0 0  
Month to date cooling degree days 0 0  
Year to date cooling degree days 0 0  
Moisture  
Dew Point -5 °F    
Average Humidity 48    
Maximum Humidity 73    
Minimum Humidity 23    
Precipitation  
Precipitation 0.00 in 0.08 in 0.72 in (1980)
Month to date precipitation 0.98 1.48  
Year to date precipitation 3.38 6.34  
Sea Level Pressure  
Sea Level Pressure 30.29 in    
Wind  
Wind Speed 7 mph (WNW)    
Max Wind Speed 18 mph    
Max Gust Speed 24 mph    
Visibility 10 miles    
Events      
T = Trace of Precipitation, MM = Missing Value Source: NWS Daily Summary

Daily Weather History Graph

Daily Weather History Graph

Search for Another Location

Airport or City:

Trip Planner

Search our weather history database for the weather conditions in past years. The results will help you decide how hot, cold, wet, or windy it might be!

Date:

Astronomy

Mar. 18, 2013 Rise Set
Actual Time 6:37 AM EDT 6:41 PM EDT
Civil Twilight 6:07 AM EDT 7:11 PM EDT
Nautical Twilight 5:32 AM EDT 7:46 PM EDT
Astronomical Twilight 4:57 AM EDT 8:22 PM EDT
Moon 10:15 AM EDT (3/18) 12:56 AM EDT (3/18)
Length of Visible Light 13h 03m
Length of Day
12h 03m
Waxing Crescent, 40% of the Moon is Illuminated
Mar 18
Waxing Crescent
Mar 19
First Quarter
Mar 27
Full
Apr 3
Last Quarter
Apr 10
New

Hourly Weather History & Observations

Time (EDT) Temp. Windchill Dew Point Humidity Pressure Visibility Wind Dir Wind Speed Gust Speed Precip Events Conditions
12:53 AM 8.1 °F -6.2 °F -9.9 °F 44% 30.22 in 10.0 mi NW 10.4 mph 18.4 mph N/A   Clear
1:53 AM 8.1 °F -5.3 °F -9.9 °F 44% 30.24 in 10.0 mi NW 9.2 mph - N/A   Clear
2:53 AM 8.1 °F -5.3 °F -9.9 °F 44% 30.25 in 10.0 mi NW 9.2 mph - N/A   Clear
3:53 AM 7.0 °F -7.5 °F -9.9 °F 46% 30.25 in 10.0 mi WNW 10.4 mph - N/A   Clear
4:53 AM 6.1 °F -6.8 °F -9.0 °F 50% 30.27 in 10.0 mi WNW 8.1 mph - N/A   Clear
5:53 AM 5.0 °F -4.1 °F -9.0 °F 52% 30.30 in 10.0 mi WNW 4.6 mph - N/A   Clear
6:53 AM 3.0 °F - -8.0 °F 60% 30.32 in 10.0 mi Calm Calm - N/A   Clear
7:53 AM 7.0 °F -4.5 °F -7.1 °F 53% 30.33 in 10.0 mi West 6.9 mph - N/A   Clear
8:53 AM 10.0 °F -4.5 °F -7.1 °F 46% 30.34 in 10.0 mi WNW 11.5 mph - N/A   Clear
9:53 AM 14.0 °F 0.5 °F -6.0 °F 41% 30.34 in 10.0 mi NW 11.5 mph 23.0 mph N/A   Clear
10:53 AM 17.1 °F 3.6 °F -6.0 °F 36% 30.32 in 10.0 mi NW 12.7 mph 23.0 mph N/A   Clear
11:53 AM 19.0 °F 6.8 °F -5.1 °F 34% 30.31 in 10.0 mi West 11.5 mph 20.7 mph N/A   Clear
12:53 PM 21.9 °F 8.7 °F -5.1 °F 30% 30.30 in 10.0 mi West 15.0 mph - N/A   Clear
1:53 PM 24.1 °F 15.2 °F -5.1 °F 28% 30.28 in 10.0 mi NNW 8.1 mph 19.6 mph N/A   Clear
2:53 PM 27.0 °F 16.7 °F -6.0 °F 24% 30.27 in 10.0 mi NW 11.5 mph - N/A   Clear
3:53 PM 28.9 °F 20.4 °F -6.0 °F 22% 30.26 in 10.0 mi NW 9.2 mph 18.4 mph N/A   Clear
4:53 PM 28.9 °F 21.1 °F -6.0 °F 22% 30.25 in 10.0 mi WNW 8.1 mph - N/A   Clear
5:53 PM 28.0 °F 18.1 °F -6.0 °F 23% 30.26 in 10.0 mi WNW 11.5 mph - N/A   Clear
6:53 PM 25.0 °F 19.3 °F -6.0 °F 26% 30.27 in 10.0 mi NW 4.6 mph - N/A   Clear
7:53 PM 21.9 °F - -2.9 °F 34% 30.27 in 10.0 mi Calm Calm - N/A   Clear
8:53 PM 16.0 °F - 1.9 °F 54% 30.28 in 10.0 mi Calm Calm - N/A   Clear
9:53 PM 12.0 °F - 3.0 °F 67% 30.32 in 10.0 mi Calm Calm - N/A   Clear
10:53 PM 10.9 °F - 3.0 °F 70% 30.33 in 10.0 mi Calm Calm - N/A   Clear
11:53 PM 8.1 °F - 1.9 °F 76% 30.33 in 10.0 mi Calm Calm - N/A   Clear